Villa Grove, CO

4:39 AM MST on February 08, 2016 (GMT -0700)
Monarch Pass

Weather History for KMYP - July, 2014

Change the Weather History Date:

Friday, July 4, 2014

  Actual Average (KGUC) Record (KGUC)
Temperature  
Mean Temperature 54 °F -  
Max Temperature 66 °F 76 °F 86 °F (2001)
Min Temperature 42 °F 42 °F 37 °F (1997)
Degree Days  
Heating Degree Days 11    
Growing Degree Days 4 (Base 50)    
Moisture  
Dew Point 35 °F    
Average Humidity 59    
Maximum Humidity 93    
Minimum Humidity 30    
Precipitation  
Precipitation 0.00 in - - ()
Sea Level Pressure  
Sea Level Pressure 30.81 in    
Wind  
Wind Speed 12 mph (WSW)    
Max Wind Speed 25 mph    
Max Gust Speed 28 mph    
Visibility 10 miles    
Events Rain , Thunderstorm    
Averages and records for this station are not official NWS values.
T = Trace of Precipitation, MM = Missing Value Source: NWS Daily Summary

Daily Weather History Graph

Daily Weather History Graph

Search for Another Location

Airport or City:

Trip Planner

Search our weather history database for the weather conditions in past years. The results will help you decide how hot, cold, wet, or windy it might be!

Date:

Astronomy

Jul. 04, 2014 Rise Set
Actual Time 5:46 AM MDT 8:31 PM MDT
Civil Twilight 5:15 AM MDT 9:03 PM MDT
Nautical Twilight 4:35 AM MDT 9:42 PM MDT
Astronomical Twilight 3:51 AM MDT 10:26 PM MDT
Moon 12:39 PM MDT (7/4) 12:01 AM MDT (7/4)
Length of Visible Light 15h 47m
Length of Day
14h 45m
Waxing Crescent, 43% of the Moon is Illuminated
Jul 4
Waxing Crescent
Jul 5
First Quarter
Jul 12
Full
Jul 18
Last Quarter
Jul 26
New

Hourly Weather History & Observations

Time (MDT) Temp. Windchill Dew Point Humidity Pressure Visibility Wind Dir Wind Speed Gust Speed Precip Events Conditions
12:02 AM 46.4 °F 44.3 °F 35.6 °F 66% 30.83 in 10.0 mi East 4.6 mph - N/A   Mostly Cloudy
12:23 AM 46.4 °F 44.3 °F 33.8 °F 62% 30.83 in 10.0 mi ENE 4.6 mph - N/A   Overcast
12:30 AM 48.2 °F - 33.8 °F 58% 30.83 in 10.0 mi Calm Calm - N/A   Overcast
12:53 AM 48.2 °F - 33.8 °F 58% 30.83 in 10.0 mi WSW 4.6 mph - N/A   Overcast
1:20 AM 48.2 °F - 33.8 °F 58% 30.82 in 10.0 mi South 5.8 mph - N/A   Overcast
1:36 AM 46.4 °F 41.1 °F 33.8 °F 62% 30.81 in 10.0 mi SSW 11.5 mph - N/A   Scattered Clouds
2:03 AM 46.4 °F 41.5 °F 32.0 °F 57% 30.81 in 10.0 mi SSW 10.4 mph - N/A   Clear
2:17 AM 46.4 °F 41.5 °F 32.0 °F 57% 30.80 in 10.0 mi SW 10.4 mph - N/A   Clear
2:40 AM 46.4 °F 40.7 °F 32.0 °F 57% 30.81 in 10.0 mi SW 12.7 mph - N/A   Clear
3:03 AM 46.4 °F 41.1 °F 32.0 °F 57% 30.80 in 10.0 mi SW 11.5 mph - N/A   Clear
3:17 AM 46.4 °F 40.7 °F 32.0 °F 57% 30.79 in 10.0 mi SSW 12.7 mph - N/A   Scattered Clouds
3:41 AM 46.4 °F 40.1 °F 32.0 °F 57% 30.79 in 10.0 mi SW 15.0 mph - N/A   Clear
4:03 AM 46.4 °F 39.0 °F 32.0 °F 57% 30.79 in 10.0 mi SW 19.6 mph - N/A   Clear
4:20 AM 44.6 °F 37.2 °F 32.0 °F 61% 30.79 in 10.0 mi SW 17.3 mph - N/A   Scattered Clouds
4:37 AM 44.6 °F 36.6 °F 32.0 °F 61% 30.79 in 10.0 mi SW 19.6 mph - N/A   Clear
4:53 AM 44.6 °F 36.4 °F 32.0 °F 61% 30.79 in 10.0 mi SW 20.7 mph - N/A   Clear
5:10 AM 42.8 °F 33.8 °F 32.0 °F 66% 30.79 in 10.0 mi WSW 21.9 mph - N/A   Clear
5:42 AM 44.6 °F 35.5 °F 32.0 °F 61% 30.80 in 10.0 mi West 25.3 mph - N/A   Clear
5:46 AM 44.6 °F 35.5 °F 32.0 °F 61% 30.80 in 10.0 mi West 25.3 mph - N/A   Clear
6:23 AM 44.6 °F 36.1 °F 33.8 °F 66% 30.81 in 10.0 mi West 21.9 mph - N/A   Clear
6:43 AM 44.6 °F 35.7 °F 33.8 °F 66% 30.80 in 10.0 mi West 24.2 mph - N/A   Clear
7:01 AM 44.6 °F 35.7 °F 33.8 °F 66% 30.80 in 10.0 mi West 24.2 mph - N/A   Clear
7:22 AM 44.6 °F 35.7 °F 33.8 °F 66% 30.81 in 10.0 mi West 24.2 mph - N/A   Clear
7:31 AM 44.6 °F 35.7 °F 33.8 °F 66% 30.80 in 10.0 mi West 24.2 mph - N/A   Clear
7:56 AM 44.6 °F 36.1 °F 33.8 °F 66% 30.81 in 10.0 mi WNW 21.9 mph - N/A   Clear
8:18 AM 46.4 °F 40.1 °F 33.8 °F 62% 30.81 in 10.0 mi West 15.0 mph 21.9 mph N/A   Clear
8:43 AM 50.0 °F - 33.8 °F 54% 30.82 in 10.0 mi WNW 12.7 mph 21.9 mph N/A   Clear
9:02 AM 51.8 °F - 33.8 °F 50% 30.82 in 10.0 mi WNW 8.1 mph 19.6 mph N/A   Clear
9:23 AM 53.6 °F - 33.8 °F 47% 30.82 in 10.0 mi WNW 9.2 mph - N/A   Clear
9:40 AM 53.6 °F - 35.6 °F 51% 30.82 in 10.0 mi West 8.1 mph - N/A   Clear
9:56 AM 55.4 °F - 35.6 °F 47% 30.82 in 10.0 mi West 8.1 mph - N/A   Clear
10:22 AM 55.4 °F - 35.6 °F 47% 30.82 in 10.0 mi West 19.6 mph 23.0 mph N/A   Clear
10:39 AM 55.4 °F - 37.4 °F 51% 30.82 in 10.0 mi West 13.8 mph 19.6 mph N/A   Clear
10:57 AM 53.6 °F - 37.4 °F 54% 30.82 in 10.0 mi WSW 15.0 mph 19.6 mph N/A   Clear
11:23 AM 55.4 °F - 35.6 °F 47% 30.82 in 10.0 mi WSW 11.5 mph 19.6 mph N/A   Clear
11:43 AM 57.2 °F - 37.4 °F 48% 30.82 in 10.0 mi SW 13.8 mph 25.3 mph N/A   Clear
12:00 PM 59.0 °F - 35.6 °F 42% 30.82 in 10.0 mi WSW 15.0 mph 21.9 mph N/A   Clear
12:19 PM 60.8 °F - 37.4 °F 42% 30.82 in 10.0 mi WSW 13.8 mph 20.7 mph N/A   Scattered Clouds
12:42 PM 60.8 °F - 35.6 °F 39% 30.82 in 10.0 mi West 13.8 mph 21.9 mph N/A   Clear
12:58 PM 60.8 °F - 35.6 °F 39% 30.82 in 10.0 mi West 13.8 mph 20.7 mph N/A   Clear
1:23 PM 62.6 °F - 33.8 °F 34% 30.81 in 10.0 mi WSW 17.3 mph 24.2 mph N/A Thunderstorm Scattered Clouds
1:41 PM 64.4 °F - 35.6 °F 34% 30.80 in 10.0 mi WSW 17.3 mph 24.2 mph N/A   Scattered Clouds
2:02 PM 64.4 °F - 33.8 °F 32% 30.79 in 10.0 mi WSW 12.7 mph 26.5 mph N/A   Scattered Clouds
2:21 PM 64.4 °F - 32.0 °F 30% 30.79 in 10.0 mi WSW 13.8 mph 26.5 mph N/A Thunderstorm Scattered Clouds
2:39 PM 66.2 °F - 33.8 °F 30% 30.79 in 10.0 mi WNW 13.8 mph 25.3 mph N/A   Scattered Clouds
2:59 PM 64.4 °F - 33.8 °F 32% 30.79 in 10.0 mi WSW 6.9 mph 20.7 mph N/A   Mostly Cloudy
3:23 PM 59.0 °F - 33.8 °F 39% 30.79 in 10.0 mi NE 15.0 mph - N/A   Mostly Cloudy
3:33 PM 55.4 °F - 33.8 °F 44% 30.78 in 10.0 mi ENE 21.9 mph 27.6 mph N/A   Overcast
3:55 PM 55.4 °F - 32.0 °F 41% 30.77 in 10.0 mi ENE 23.0 mph - N/A Thunderstorm Overcast
4:23 PM 53.6 °F - 37.4 °F 54% 30.77 in 10.0 mi ENE 16.1 mph - N/A Rain Light Rain
4:42 PM 53.6 °F - 33.8 °F 47% 30.77 in 10.0 mi ENE 16.1 mph - N/A Thunderstorm Mostly Cloudy
4:56 PM 53.6 °F - 33.8 °F 47% 30.78 in 10.0 mi ENE 13.8 mph - N/A   Mostly Cloudy
5:23 PM 53.6 °F - 33.8 °F 47% 30.79 in 10.0 mi NE 12.7 mph - N/A Rain Light Rain
5:43 PM 50.0 °F - 37.4 °F 62% 30.79 in 7.0 mi East 10.4 mph 16.1 mph N/A Rain Rain
6:00 PM 46.4 °F 41.9 °F 41.0 °F 81% 30.81 in 10.0 mi SSE 9.2 mph - N/A Rain , Thunderstorm Light Thunderstorms and Rain
6:23 PM 44.6 °F 40.7 °F 41.0 °F 87% 30.83 in 4.0 mi SW 6.9 mph - N/A Rain Rain
6:40 PM 44.6 °F 39.7 °F 41.0 °F 87% 30.82 in 5.0 mi SSW 9.2 mph - N/A Rain Rain
7:03 PM 44.6 °F 40.7 °F 39.2 °F 81% 30.82 in 10.0 mi SSW 6.9 mph 10.4 mph N/A Rain Light Rain
7:23 PM 46.4 °F 42.4 °F 35.6 °F 66% 30.82 in 10.0 mi SW 8.1 mph - N/A   Drizzle
7:40 PM 46.4 °F - 37.4 °F 71% 30.83 in 10.0 mi Calm Calm - N/A   Overcast
8:03 PM 44.6 °F 38.4 °F 39.2 °F 81% 30.81 in 10.0 mi ENE 12.7 mph - N/A Rain Rain
8:21 PM 44.6 °F 36.4 °F 41.0 °F 87% 30.81 in 10.0 mi East 20.7 mph 25.3 mph N/A   Overcast
8:43 PM 44.6 °F 37.2 °F 41.0 °F 87% 30.81 in 10.0 mi East 17.3 mph - N/A   Overcast
9:02 PM 42.8 °F 34.0 °F 41.0 °F 93% 30.80 in 0.8 mi East 20.7 mph 24.2 mph N/A   Overcast
9:22 PM 42.8 °F 34.3 °F 41.0 °F 93% 30.79 in 10.0 mi ENE 19.6 mph - N/A   Scattered Clouds
9:42 PM 42.8 °F 35.1 °F 41.0 °F 93% 30.81 in 1.0 mi East 16.1 mph - N/A   Mist
10:02 PM 42.8 °F 35.8 °F 41.0 °F 93% 30.82 in 10.0 mi East 13.8 mph - N/A   Clear
10:17 PM 44.6 °F 40.2 °F 37.4 °F 76% 30.83 in 10.0 mi East 8.1 mph - N/A   Clear
10:41 PM 46.4 °F - 33.8 °F 62% 30.83 in 10.0 mi Calm Calm - N/A   Clear
10:58 PM 46.4 °F 43.5 °F 35.6 °F 66% 30.83 in 10.0 mi West 5.8 mph - N/A   Clear
11:17 PM 46.4 °F 43.5 °F 35.6 °F 66% 30.83 in 10.0 mi WSW 5.8 mph - N/A   Clear
11:36 PM 46.4 °F 44.3 °F 33.8 °F 62% 30.83 in 10.0 mi West 4.6 mph - N/A   Clear